This is the latest recevied weather packets stored in our database for station/object VE6CPK-13. If no packets are shown the sender has not sent any weather packets the latest 10 day(s).
| Time | Temp. | Humidity | Pressure | Rain* | Wind** | Luminosity | Snow |
|---|---|---|---|---|---|---|---|
| 1778167920 | 14.44° C | 43% | 1006.1 hPa | 0 mm | - | - | - |
| 1778167620 | 14.44° C | 42% | 1006.2 hPa | 0 mm | - | - | - |
| 1778167320 | 14.44° C | 44% | 1006.2 hPa | 0 mm | - | - | - |
| 1778167020 | 13.89° C | 44% | 1006.2 hPa | 0 mm | - | - | - |
| 1778166720 | 13.89° C | 45% | 1006.2 hPa | 0 mm | - | - | - |
| 1778166420 | 13.33° C | 46% | 1006.3 hPa | 0 mm | - | - | - |
| 1778166120 | 13.33° C | 48% | 1006.4 hPa | 0 mm | - | - | - |
| 1778165820 | 12.78° C | 47% | 1006.5 hPa | 0 mm | - | - | - |
| 1778165520 | 12.78° C | 47% | 1006.5 hPa | 0 mm | - | - | - |
| 1778165219 | 12.78° C | 47% | 1006.5 hPa | 0 mm | - | - | - |
| 1778164919 | 12.78° C | 48% | 1006.5 hPa | 0 mm | - | - | - |
| 1778164619 | 12.78° C | 48% | 1006.4 hPa | 0 mm | - | - | - |
| 1778164319 | 12.22° C | 49% | 1006.3 hPa | 0 mm | - | - | - |
| 1778164019 | 12.22° C | 49% | 1006.3 hPa | 0 mm | - | - | - |
| 1778163720 | 12.22° C | 50% | 1006.3 hPa | 0 mm | - | - | - |
| 1778163419 | 11.67° C | 51% | 1006.2 hPa | 0 mm | - | - | - |
| 1778163121 | 11.67° C | 52% | 1006.2 hPa | 0 mm | - | - | - |
| 1778162819 | 11.67° C | 53% | 1006.2 hPa | 0 mm | - | - | - |
| 1778162520 | 12.22° C | 51% | 1006 hPa | 0 mm | - | - | - |
| 1778162220 | 12.22° C | 51% | 1006.1 hPa | 0 mm | - | - | - |
| 1778161920 | 12.22° C | 51% | 1006.1 hPa | 0 mm | - | - | - |
| 1778161620 | 12.22° C | 50% | 1005.9 hPa | 0 mm | - | - | - |
| 1778161319 | 11.67° C | 50% | 1005.9 hPa | 0 mm | - | - | - |
| 1778161019 | 11.67° C | 51% | 1005.8 hPa | 0 mm | - | - | - |
| 1778160719 | 11.67° C | 51% | 1005.8 hPa | 0 mm | - | - | - |
* Rain latest hour (hover to see other rain measurements)
** Current wind speed in m/s (hover to see current wind gust speed)